Hinckley, MN

5:37 AM CST on December 06, 2019 (GMT -0600)
Hinckley

Weather History for K04W - October, 2019

Change the Weather History Date:

Friday, October 4, 2019

  Actual Average (KJMR) Record (KJMR)
Temperature  
Mean Temperature 44 °F -  
Max Temperature 46 °F 64 °F 82 °F (1969)
Min Temperature 42 °F 37 °F 19 °F (1989)
Degree Days  
Heating Degree Days 21    
Moisture  
Dew Point 40 °F    
Average Humidity 84    
Maximum Humidity 93    
Minimum Humidity 71    
Precipitation  
Precipitation 0.00 in - - ()
Sea Level Pressure  
Sea Level Pressure 30.39 in    
Wind  
Wind Speed 0 mph (North)    
Max Wind Speed 0 mph    
Max Gust Speed -    
Visibility 10 miles    
Events      
Averages and records for this station are not official NWS values.
T = Trace of Precipitation, MM = Missing Value Source: NWS Daily Summary

Daily Weather History Graph

Daily Weather History Graph

Search for Another Location

Airport or City:

Astronomy

Oct. 04, 2019 Rise Set
Actual Time 7:13 AM CDT 6:46 PM CDT
Civil Twilight 6:43 AM CDT 7:16 PM CDT
Nautical Twilight 6:09 AM CDT 7:50 PM CDT
Astronomical Twilight 5:34 AM CDT 8:25 PM CDT
Moon 2:03 PM CDT (10/4) 10:57 PM CDT (10/4)
Length of Visible Light 12h 32m
Length of Day
11h 32m
Waxing Crescent, 40% of the Moon is Illuminated
Oct 4
Waxing Crescent
Oct 5
First Quarter
Oct 13
Full
Oct 21
Last Quarter
Oct 27
New

Hourly Weather History & Observations

Time (CDT) Temp. Dew Point Humidity Pressure Visibility Wind Dir Wind Speed Gust Speed Precip Events Conditions
12:15 AM 42.8 °F 41.0 °F 93% 30.39 in 10.0 mi Calm Calm - N/A   Overcast
12:35 AM 42.8 °F 41.0 °F 93% 30.39 in 10.0 mi Calm Calm - N/A   Overcast
12:36 AM 42.8 °F 41.0 °F 93% 30.39 in 10.0 mi Calm Calm - N/A   Overcast
12:55 AM 42.8 °F 41.0 °F 93% 30.39 in 10.0 mi Calm Calm - N/A   Overcast
12:56 AM 42.8 °F 41.0 °F 93% 30.39 in 10.0 mi Calm Calm - N/A   Overcast
1:19 AM 42.8 °F 41.0 °F 93% 30.40 in 10.0 mi Calm Calm - N/A   Overcast
1:36 AM 42.8 °F 41.0 °F 93% 30.40 in 10.0 mi Calm Calm - N/A   Overcast
1:56 AM 42.8 °F 41.0 °F 93% 30.41 in 10.0 mi Calm Calm - N/A   Overcast
2:15 AM 42.8 °F 41.0 °F 93% 30.41 in 10.0 mi Calm Calm - N/A   Overcast
2:16 AM 42.8 °F 41.0 °F 93% 30.41 in 10.0 mi Calm Calm - N/A   Overcast
2:35 AM 42.8 °F 41.0 °F 93% 30.42 in 10.0 mi Calm Calm - N/A   Overcast
2:39 AM 42.8 °F 41.0 °F 93% 30.42 in 10.0 mi Calm Calm - N/A   Overcast
2:57 AM 42.8 °F 41.0 °F 93% 30.41 in 10.0 mi Calm Calm - N/A   Overcast
3:15 AM 42.8 °F 41.0 °F 93% 30.41 in 10.0 mi Calm Calm - N/A   Overcast
3:35 AM 42.8 °F 41.0 °F 93% 30.41 in 10.0 mi Calm Calm - N/A   Overcast
3:36 AM 42.8 °F 41.0 °F 93% 30.41 in 10.0 mi Calm Calm - N/A   Overcast
3:55 AM 42.8 °F 41.0 °F 93% 30.42 in 10.0 mi Calm Calm - N/A   Overcast
3:56 AM 42.8 °F 41.0 °F 93% 30.42 in 10.0 mi Calm Calm - N/A   Overcast
4:18 AM 42.8 °F 41.0 °F 93% 30.42 in 10.0 mi Calm Calm - N/A   Overcast
4:36 AM 42.8 °F 41.0 °F 93% 30.43 in 10.0 mi Calm Calm - N/A   Overcast
4:56 AM 42.8 °F 41.0 °F 93% 30.43 in 10.0 mi Calm Calm - N/A   Overcast
5:15 AM 42.8 °F 41.0 °F 93% 30.43 in 10.0 mi Calm Calm - N/A   Overcast
5:16 AM 42.8 °F 41.0 °F 93% 30.43 in 10.0 mi Calm Calm - N/A   Overcast
5:35 AM 42.8 °F 41.0 °F 93% 30.43 in 10.0 mi Calm Calm - N/A   Overcast
5:39 AM 42.8 °F 41.0 °F 93% 30.43 in 10.0 mi Calm Calm - N/A   Overcast
5:57 AM 42.8 °F 41.0 °F 93% 30.44 in 10.0 mi Calm Calm - N/A   Overcast
6:16 AM 42.8 °F 41.0 °F 93% 30.44 in 10.0 mi Calm Calm - N/A   Overcast
6:35 AM 42.8 °F 41.0 °F 93% 30.45 in 10.0 mi Calm Calm - N/A   Overcast
6:36 AM 42.8 °F 41.0 °F 93% 30.45 in 10.0 mi Calm Calm - N/A   Overcast
6:55 AM 42.8 °F 41.0 °F 93% 30.45 in 10.0 mi Calm Calm - N/A   Overcast
7:18 AM 42.8 °F 41.0 °F 93% 30.45 in 10.0 mi Calm Calm - N/A   Overcast
7:37 AM 42.8 °F 41.0 °F 93% 30.46 in 10.0 mi Calm Calm - N/A   Overcast
7:56 AM 42.8 °F 41.0 °F 93% 30.47 in 10.0 mi Calm Calm - N/A   Overcast
8:15 AM 42.8 °F 41.0 °F 93% 30.47 in 10.0 mi Calm Calm - N/A   Overcast
8:35 AM 42.8 °F 41.0 °F 93% 30.47 in 10.0 mi Calm Calm - N/A   Overcast
8:39 AM 42.8 °F 41.0 °F 93% 30.47 in 10.0 mi Calm Calm - N/A   Overcast
8:58 AM 42.8 °F 41.0 °F 93% 30.47 in 10.0 mi Calm Calm - N/A   Overcast
9:16 AM 42.8 °F 39.2 °F 87% 30.48 in 10.0 mi Calm Calm - N/A   Overcast
9:35 AM 42.8 °F 39.2 °F 87% 30.48 in 10.0 mi Calm Calm - N/A   Overcast
9:36 AM 42.8 °F 39.2 °F 87% 30.48 in 10.0 mi Calm Calm - N/A   Overcast
9:55 AM 42.8 °F 39.2 °F 87% 30.48 in 10.0 mi Calm Calm - N/A   Overcast
9:56 AM 44.6 °F 41.0 °F 87% 30.48 in 10.0 mi Calm Calm - N/A   Overcast
10:19 AM 44.6 °F 39.2 °F 81% 30.48 in 10.0 mi Calm Calm - N/A   Overcast
10:36 AM 44.6 °F 37.4 °F 76% 30.47 in 10.0 mi Calm Calm - N/A   Overcast
10:55 AM 44.6 °F 37.4 °F 76% 30.47 in 10.0 mi Calm Calm - N/A   Overcast
10:56 AM 44.6 °F 37.4 °F 76% 30.47 in 10.0 mi Calm Calm - N/A   Overcast
11:15 AM 44.6 °F 37.4 °F 76% 30.47 in 10.0 mi Calm Calm - N/A   Overcast
11:16 AM 44.6 °F 37.4 °F 76% 30.47 in 10.0 mi Calm Calm - N/A   Overcast
11:38 AM 44.6 °F 37.4 °F 76% 30.46 in 10.0 mi Calm Calm - N/A   Overcast
11:56 AM 42.8 °F 41.0 °F 93% 30.45 in 5.0 mi Calm Calm - N/A   Overcast
12:15 PM 42.8 °F 41.0 °F 93% 30.45 in 4.0 mi Calm Calm - N/A   Overcast
12:16 PM 42.8 °F 41.0 °F 93% 30.45 in 4.0 mi Calm Calm - N/A   Overcast
12:35 PM 44.6 °F 41.0 °F 87% 30.44 in 10.0 mi Calm Calm - N/A   Overcast
12:36 PM 44.6 °F 41.0 °F 87% 30.43 in 10.0 mi Calm Calm - N/A   Overcast
12:58 PM 44.6 °F 41.0 °F 87% 30.43 in 10.0 mi Calm Calm - N/A   Overcast
1:17 PM 44.6 °F 41.0 °F 87% 30.43 in 10.0 mi Calm Calm - N/A   Overcast
1:36 PM 46.4 °F 37.4 °F 71% 30.42 in 10.0 mi Calm Calm - N/A   Overcast
1:55 PM 46.4 °F 37.4 °F 71% 30.41 in 10.0 mi Calm Calm - N/A   Overcast
1:56 PM 46.4 °F 37.4 °F 71% 30.41 in 10.0 mi Calm Calm - N/A   Overcast
2:15 PM 46.4 °F 37.4 °F 71% 30.41 in 10.0 mi Calm Calm - N/A   Overcast
2:19 PM 46.4 °F 37.4 °F 71% 30.41 in 10.0 mi Calm Calm - N/A   Overcast
2:38 PM 46.4 °F 37.4 °F 71% 30.40 in 10.0 mi Calm Calm - N/A   Overcast
2:55 PM 46.4 °F 39.2 °F 76% 30.39 in 10.0 mi Calm Calm - N/A   Overcast
3:15 PM 46.4 °F 37.4 °F 71% 30.38 in 10.0 mi Calm Calm - N/A   Overcast
3:16 PM 46.4 °F 37.4 °F 71% 30.38 in 10.0 mi Calm Calm - N/A   Overcast
3:35 PM 46.4 °F 39.2 °F 76% 30.38 in 10.0 mi Calm Calm - N/A   Overcast
3:36 PM 46.4 °F 39.2 °F 76% 30.38 in 10.0 mi Calm Calm - N/A   Overcast
3:58 PM 46.4 °F 39.2 °F 76% 30.37 in 10.0 mi Calm Calm - N/A   Overcast
4:16 PM 46.4 °F 39.2 °F 76% 30.36 in 10.0 mi Calm Calm - N/A   Overcast
4:36 PM 46.4 °F 39.2 °F 76% 30.34 in 10.0 mi Calm Calm - N/A   Overcast
4:55 PM 46.4 °F 37.4 °F 71% 30.34 in 10.0 mi Calm Calm - N/A   Overcast
5:15 PM 46.4 °F 37.4 °F 71% 30.34 in 10.0 mi Calm Calm - N/A   Overcast
5:19 PM 46.4 °F 37.4 °F 71% 30.34 in 10.0 mi Calm Calm - N/A   Overcast
5:37 PM 46.4 °F 37.4 °F 71% 30.33 in 10.0 mi Calm Calm - N/A   Overcast
5:55 PM 46.4 °F 37.4 °F 71% 30.32 in 10.0 mi Calm Calm - N/A   Overcast
6:15 PM 46.4 °F 37.4 °F 71% 30.31 in 10.0 mi Calm Calm - N/A   Overcast
6:16 PM 46.4 °F 37.4 °F 71% 30.31 in 10.0 mi Calm Calm - N/A   Overcast
6:35 PM 44.6 °F 39.2 °F 81% 30.31 in 10.0 mi Calm Calm - N/A   Overcast
6:36 PM 44.6 °F 39.2 °F 81% 30.31 in 10.0 mi Calm Calm - N/A   Overcast
6:58 PM 44.6 °F 39.2 °F 81% 30.31 in 10.0 mi Calm Calm - N/A   Overcast
7:17 PM 44.6 °F 39.2 °F 81% 30.30 in 10.0 mi Calm Calm - N/A   Overcast
7:36 PM 44.6 °F 39.2 °F 81% 30.31 in 10.0 mi Calm Calm - N/A   Overcast
7:55 PM 44.6 °F 39.2 °F 81% 30.31 in 10.0 mi Calm Calm - N/A   Overcast
7:56 PM 44.6 °F 39.2 °F 81% 30.31 in 10.0 mi Calm Calm - N/A   Overcast
8:19 PM 44.6 °F 37.4 °F 76% 30.31 in 10.0 mi Calm Calm - N/A   Overcast
8:36 PM 44.6 °F 39.2 °F 81% 30.31 in 10.0 mi Calm Calm - N/A   Overcast
8:56 PM 44.6 °F 39.2 °F 81% 30.31 in 10.0 mi Calm Calm - N/A   Overcast
9:15 PM 44.6 °F 39.2 °F 81% 30.29 in 10.0 mi Calm Calm - N/A   Overcast
9:16 PM 44.6 °F 39.2 °F 81% 30.29 in 10.0 mi Calm Calm - N/A   Overcast
9:35 PM 44.6 °F 39.2 °F 81% 30.27 in 10.0 mi Calm Calm - N/A   Overcast
9:40 PM 44.6 °F 39.2 °F 81% 30.27 in 10.0 mi Calm Calm - N/A   Overcast
9:57 PM 44.6 °F 39.2 °F 81% 30.26 in 10.0 mi Calm Calm - N/A   Overcast
10:16 PM 44.6 °F 39.2 °F 81% 30.26 in 10.0 mi Calm Calm - N/A   Overcast
10:35 PM 44.6 °F 39.2 °F 81% 30.26 in 10.0 mi Calm Calm - N/A   Overcast
10:36 PM 44.6 °F 39.2 °F 81% 30.25 in 10.0 mi Calm Calm - N/A   Overcast
10:55 PM 44.6 °F 39.2 °F 81% 30.25 in 10.0 mi Calm Calm - N/A   Overcast
11:18 PM 44.6 °F 39.2 °F 81% 30.25 in 10.0 mi Calm Calm - N/A   Overcast
11:36 PM 44.6 °F 39.2 °F 81% 30.23 in 10.0 mi Calm Calm - N/A   Overcast
11:56 PM 44.6 °F 39.2 °F 81% 30.23 in 10.0 mi Calm Calm - N/A   Overcast